TimeCDT,TemperatureF,Dew PointF,Humidity,Sea Level PressureIn,VisibilityMPH,Wind Direction,Wind SpeedMPH,Gust SpeedMPH,PrecipitationIn,Events,Conditions,WindDirDegrees,DateUTC
12:53 AM,64.0,62.1,93,30.10,10.0,East,10.4,-,N/A,,Clear,90,2012-09-28 05:53:00
1:21 AM,64.4,62.6,94,30.14,9.0,East,10.4,-,N/A,,Scattered Clouds,90,2012-09-28 06:21:00
1:43 AM,64.4,62.6,94,30.14,7.0,East,10.4,-,N/A,,Mostly Cloudy,90,2012-09-28 06:43:00
1:53 AM,64.0,62.1,93,30.09,6.0,East,12.7,-,N/A,,Overcast,100,2012-09-28 06:53:00
2:53 AM,64.0,63.0,96,30.08,2.5,ESE,10.4,-,N/A,,Overcast,120,2012-09-28 07:53:00
3:10 AM,64.4,62.6,94,30.13,1.2,SE,9.2,-,N/A,,Overcast,130,2012-09-28 08:10:00
3:18 AM,64.4,62.6,94,30.12,0.5,SE,8.1,-,N/A,Fog,Fog,130,2012-09-28 08:18:00
3:25 AM,64.4,62.6,94,30.12,1.0,SE,10.4,-,N/A,,Overcast,130,2012-09-28 08:25:00
3:53 AM,64.0,63.0,96,30.06,0.8,SE,5.8,-,N/A,,Mist,130,2012-09-28 08:53:00
4:07 AM,64.4,62.6,94,30.11,0.5,SE,6.9,-,N/A,Fog,Fog,140,2012-09-28 09:07:00
4:53 AM,64.0,63.0,96,30.07,1.0,Variable,5.8,-,N/A,,Mist,0,2012-09-28 09:53:00
5:09 AM,64.4,62.6,94,30.13,3.0,Variable,6.9,-,N/A,,Overcast,0,2012-09-28 10:09:00
5:53 AM,64.0,63.0,96,30.10,5.0,North,11.5,-,N/A,,Overcast,350,2012-09-28 10:53:00
6:53 AM,63.0,62.1,97,30.09,5.0,North,5.8,-,N/A,,Overcast,10,2012-09-28 11:53:00
7:44 AM,62.6,62.6,100,30.15,1.8,North,15.0,-,N/A,,Overcast,360,2012-09-28 12:44:00
7:53 AM,63.0,62.1,97,30.12,0.8,North,13.8,-,N/A,,Overcast,360,2012-09-28 12:53:00
8:02 AM,62.6,62.6,100,30.16,2.0,North,12.7,-,N/A,,Overcast,360,2012-09-28 13:02:00
8:12 AM,62.6,62.6,100,30.16,3.0,North,12.7,-,N/A,,Overcast,10,2012-09-28 13:12:00
8:19 AM,62.6,62.6,100,30.16,2.0,North,13.8,-,N/A,,Overcast,10,2012-09-28 13:19:00
8:53 AM,63.0,62.1,97,30.12,2.0,NNE,9.2,-,N/A,,Mostly Cloudy,20,2012-09-28 13:53:00
8:56 AM,64.4,62.6,94,30.16,4.0,NE,6.9,-,N/A,,Mostly Cloudy,40,2012-09-28 13:56:00
9:53 AM,66.0,62.1,87,30.10,9.0,ESE,11.5,-,N/A,,Mostly Cloudy,120,2012-09-28 14:53:00
10:53 AM,71.1,63.0,75,30.11,10.0,Calm,Calm,-,N/A,,Clear,0,2012-09-28 15:53:00
11:53 AM,73.0,62.1,68,30.10,10.0,Calm,Calm,-,N/A,,Clear,0,2012-09-28 16:53:00
12:40 PM,73.4,64.4,73,30.14,10.0,NNE,15.0,-,N/A,,Mostly Cloudy,20,2012-09-28 17:40:00
12:53 PM,73.9,63.0,68,30.09,10.0,NNE,10.4,-,N/A,,Mostly Cloudy,20,2012-09-28 17:53:00
1:34 PM,75.2,62.6,65,30.13,10.0,North,10.4,-,N/A,,Overcast,10,2012-09-28 18:34:00
2:53 PM,75.0,63.0,66,30.05,10.0,NNE,11.5,18.4,N/A,,Mostly Cloudy,30,2012-09-28 19:53:00
3:49 PM,73.4,64.4,73,30.09,10.0,NE,10.4,18.4,N/A,,Mostly Cloudy,40,2012-09-28 20:49:00
3:53 PM,73.9,63.0,68,30.04,10.0,NNE,12.7,18.4,N/A,,Mostly Cloudy,30,2012-09-28 20:53:00
4:50 PM,73.4,62.6,69,30.08,10.0,NNE,11.5,19.6,N/A,,Mostly Cloudy,30,2012-09-28 21:50:00
4:53 PM,73.9,63.0,68,30.04,10.0,NNE,16.1,19.6,N/A,,Mostly Cloudy,30,2012-09-28 21:53:00
5:13 PM,73.4,62.6,69,30.09,10.0,NE,10.4,19.6,N/A,,Overcast,50,2012-09-28 22:13:00
5:53 PM,73.0,63.0,71,30.04,10.0,East,9.2,-,N/A,,Mostly Cloudy,80,2012-09-28 22:53:00
6:53 PM,71.1,63.0,75,30.04,10.0,East,6.9,-,N/A,,Clear,80,2012-09-28 23:53:00
7:53 PM,70.0,64.0,81,30.05,10.0,East,6.9,-,N/A,,Clear,90,2012-09-29 00:53:00
8:53 PM,69.1,64.0,84,30.05,10.0,East,5.8,-,N/A,,Clear,80,2012-09-29 01:53:00
9:53 PM,69.1,63.0,81,30.06,10.0,East,5.8,-,N/A,,Clear,90,2012-09-29 02:53:00
10:53 PM,68.0,63.0,84,30.06,10.0,East,8.1,-,N/A,,Clear,90,2012-09-29 03:53:00
11:53 PM,66.0,64.0,93,30.06,10.0,North,-9999.0,-,N/A,,Clear,0,2012-09-29 04:53:00